Theta_e
292 292 292 291 291 291 291 291 293 293 294 295 295 296 295 294 294 294 294 294 294 295
292 292 291 292 292 292 292 292 293 293 294 295 295 295 295 294 293 293 293 294 292 294
291 292 292 292 292 292 293 292 292 293 293 295 295 296 294 293 293 292 292 292 293 293
291 291 292 292 292 293 293 292 292 292 292 293 295 296 294 292 292 291 291 291 291 292
290 290 291 292 292 293 292 293 292 292 292 293 293 295 294 291 291 290 290 290 290 291
290 290 290 291 292 292 292 292 292 292 291 292 293 292 295 292 291 290 290 290 290 291
290 290 290 290 291 291 292 292 291 291 291 292 292 293 295 292 291 291 290 290 291 291
290 290 290 290 290 291 291 291 291 291 291 291 292 294 295 293 292 291 290 291 291 291
290 290 289 289 289 289 290 290 290 290 289 290 291 297 300 297 292 291 290 289 291 291
290 289 289 288 288 288 288 289 289 289 289 289 291 297 299 299 293 292 291 290 290 290
290 289 288 287 287 287 288 288 288 288 289 289 290 295 297 298 293 292 291 290 290 291
290 289 288 287 287 287 287 288 288 289 289 289 291 294 296 297 293 292 291 290 290 293
290 289 288 288 287 287 287 287 288 288 290 290 290 292 296 297 293 291 290 289 290 292
290 289 289 288 288 287 287 287 287 287 289 289 291 292 296 296 293 291 290 288 288 290
Wind_Speed
5 4 4 5 6 5 6 7 9 9 9 9 8 7 8 7 8 9 9 11 10 8
4 5 5 6 6 5 6 6 9 9 9 9 9 8 8 6 8 9 9 10 9 8
5 5 5 5 6 7 7 7 8 9 10 9 9 9 9 7 8 9 8 7 11 10
5 6 5 5 6 6 7 7 8 8 8 9 9 9 8 8 8 9 10 10 9 11
5 5 6 6 7 7 8 8 7 7 8 9 9 9 7 8 7 8 10 10 10 11
5 6 7 7 7 8 7 8 8 7 8 9 9 9 7 6 7 7 7 8 9 10
5 5 6 7 7 7 7 7 8 7 8 8 10 8 7 4 6 7 6 7 7 9
5 5 5 6 6 6 6 6 7 8 9 9 8 7 1 4 7 7 8 8 7 7
5 4 4 5 6 5 5 6 6 6 7 9 6 14 15 9 6 7 6 8 9 9
5 5 4 4 4 5 4 5 6 6 6 8 8 13 16 12 5 6 7 7 7 8
6 5 4 4 4 4 3 4 5 5 6 7 6 14 14 12 5 6 7 6 7 7
6 5 4 4 4 4 4 4 4 5 7 6 7 12 13 11 5 6 7 6 6 8
6 6 6 5 5 3 3 6 5 7 6 9 8 11 12 11 3 7 6 6 6 9
6 6 6 5 4 5 6 6 6 7 7 7 7 9 12 12 6 4 5 5 6 6
Wind_Direction
307 303 316 321 322 323 329 329 330 336 340 339 337 340 346 352 346 351 350 346 340 334
305 308 310 318 317 321 319 323 341 339 340 340 350 348 343 344 348 347 352 350 338 328
302 302 305 303 319 328 321 319 328 341 345 344 342 350 352 344 347 351 359 355 349 348
307 311 313 309 325 327 318 325 323 329 335 342 340 349 348 349 349 354 353 357 353 354
302 310 307 316 324 327 325 321 321 324 327 329 334 333 338 346 346 348 351 351 349 350
314 312 313 316 320 320 321 325 326 337 332 326 327 326 328 342 344 343 348 347 346 342
300 303 305 311 311 315 321 322 328 336 335 332 325 321 310 339 345 347 349 343 341 340
293 291 295 302 310 321 323 323 325 333 336 335 334 337 287 360 356 345 342 339 338 335
274 285 292 304 315 323 331 325 334 336 334 335 334 332 352 10 350 343 340 335 331 334
252 268 280 296 305 319 333 322 328 332 336 334 330 337 338 359 353 334 336 331 329 330
244 256 274 285 297 305 310 325 323 322 328 326 327 340 338 356 353 340 337 332 331 323
246 258 263 281 292 303 305 312 313 311 318 322 321 335 337 335 339 338 336 337 335 336
256 264 269 273 288 285 289 302 312 310 311 315 321 327 332 334 331 332 329 333 334 344
260 264 265 278 268 287 295 295 301 304 308 311 319 321 329 336 338 319 321 334 334 337